Regional Weather Roundup
Issued by NWS Memphis, TN

Home | Current Version | Previous Version | Text Only | Print | Product List | Glossary On
Versions: 1 2 3 4 5 6 7 8 9 10 11 12 13 14 15 16 17 18 19 20 21 22 23 24 25 26 27 28 29 30 31 32 33 34 35 36 37 38 39 40 41 42 43 44 45 46 47 48 49 50
000
ASUS44 KMEG 241510
RWRMEG
MEMPHIS CWA HOURLY WEATHER ROUNDUP
NATIONAL WEATHER SERVICE MEMPHIS TN
1000 AM CDT FRI OCT 24 2014

...WEST TENNESSEE...

CITY           SKY/WX    TMP DP  RH WIND       PRES   REMARKS
MEMPHIS INTL   MOSUNNY   60  47  61 CALM      30.15F
NWS MEMPHIS      N/A     57 N/A N/A MISG        N/A
JACKSON        SUNNY     57  47  69 CALM      30.15S
LEXINGTON      SUNNY     55  46  71 CALM      30.13S
SAVANNAH       SUNNY     55  52  88 NW3       30.15R
DYERSBURG      SUNNY     54  41  62 W5        30.16F
UNION CITY     MOSUNNY   54  48  82 W3        30.14S
PARIS          SUNNY     55  45  67 CALM      30.14F
HUNTINGDON     SUNNY     56  45  66 CALM      30.14F


...EASTERN ARKANSAS...

CITY           SKY/WX    TMP DP  RH WIND       PRES   REMARKS
JONESBORO      MOSUNNY   56  50  80 SW5       30.16F
WEST MEMPHIS   SUNNY     58  50  75 NW5       30.16S
BATESVILLE     SUNNY     54  52  94 CALM      30.16S
NEWPORT        MOSUNNY   58  51  77 S6        30.18S
WALNUT RIDGE   CLOUDY    52  46  82 NW6       30.17R
BLYTHEVILLE    SUNNY     59  51  75 VRB6      30.17R
SEARCY         SUNNY     58  50  75 CALM      30.19S
STUTTGART      SUNNY     61  50  67 W3        30.18F
PINE BLUFF     SUNNY     58  49  72 CALM      30.18S
MONTICELLO     SUNNY     60  49  66 NW3       30.18S


...NORTH MISSISSIPPI...

CITY           SKY/WX    TMP DP  RH WIND       PRES   REMARKS
TUPELO         SUNNY     59  47  64 NE7       30.15S
OXFORD         SUNNY     57  46  67 N3        30.18S
OLIVE BRANCH   MOSUNNY   55  50  82 CALM      30.16F
TUNICA         SUNNY     55  50  82 CALM      30.17F
CLARKSDALE     SUNNY     57  52  82 CALM      30.18F
CORINTH        SUNNY     57  48  72 CALM      30.15R
GRENADA          N/A    N/A N/A N/A MISG        N/A
GREENWOOD      SUNNY     58  51  78 CALM      30.17R
COLUMBUS       SUNNY     60  49  67 N7        30.14S
STARKVILLE     FAIR      59  50  72 N5        30.15S
GOLDEN TRIANGL SUNNY     61  48  63 N7        30.14S


...SOUTHEAST MISSOURI...

CITY           SKY/WX    TMP DP  RH WIND       PRES   REMARKS
WEST PLAINS    SUNNY     58  51  78 CALM      30.16S
POPLAR BLUFF   CLOUDY    56  48  74 CALM      30.14S
CAPE GIRARDEAU CLOUDY    57  49  74 W5        30.14S


...NORTHWEST ALABAMA...

CITY           SKY/WX    TMP DP  RH WIND       PRES   REMARKS
MUSCLE SHOALS  SUNNY     59  47  64 CALM      30.14F


...MIDDLE TENNESSEE...

CITY           SKY/WX    TMP DP  RH WIND       PRES   REMARKS
NASHVILLE      MOSUNNY   59  45  59 CALM      30.15R
CLARKSVILLE    SUNNY     57  47  69 CALM      30.14S
COLUMBIA         N/A     55  54  94 CALM      30.12S


...WESTERN KENTUCKY...

CITY           SKY/WX    TMP DP  RH WIND       PRES   REMARKS
PADUCAH        CLOUDY    55  49  80 W6        30.14R
FORT CAMPBELL  SUNNY     58  48  68 VRB1      30.14S


...CENTRAL ARKANSAS...

CITY           SKY/WX    TMP DP  RH WIND       PRES   REMARKS
LITTLE ROCK    MOSUNNY   61  48  62 W3        30.18S


SKY/WX REPORTED AS FAIR MEANS FEW OR NO CLOUDS BELOW
12 THOUSAND FEET.




USA.gov is the U.S. government's official web portal to all federal, state and local government web resources and services.